Time,TemperatureF,DewpointF,PressureIn,WindDirection,WindDirectionDegrees,WindSpeedMPH,WindSpeedGustMPH,Humidity,HourlyPrecipIn,Conditions,Clouds,dailyrainin,SoftwareType,DateUTC
2013-04-12 00:00:00,40.4,33.4,29.76,West,262,3.0,6.0,76,0.00,,,0.00,WUHU216DAVISVP2,2013-04-12 05:00:00,
2013-04-12 00:05:00,40.2,33.0,29.77,WNW,290,4.0,5.0,75,0.00,,,0.00,WUHU216DAVISVP2,2013-04-12 05:05:00,
2013-04-12 00:10:00,40.0,33.1,29.77,WNW,289,2.0,5.0,76,0.00,,,0.00,WUHU216DAVISVP2,2013-04-12 05:10:00,
2013-04-12 00:15:00,39.8,33.2,29.77,WNW,291,2.0,5.0,77,0.00,,,0.00,WUHU216DAVISVP2,2013-04-12 05:15:00,
2013-04-12 00:20:00,39.5,32.9,29.77,WNW,283,1.0,3.0,77,0.00,,,0.00,WUHU216DAVISVP2,2013-04-12 05:20:00,
2013-04-12 00:25:00,39.4,32.8,29.76,WNW,288,1.0,3.0,77,0.00,,,0.00,WUHU216DAVISVP2,2013-04-12 05:25:00,
2013-04-12 00:30:00,39.3,32.7,29.76,West,274,1.0,4.0,77,0.00,,,0.00,WUHU216DAVISVP2,2013-04-12 05:30:00,
2013-04-12 00:35:00,39.3,33.0,29.76,WNW,284,1.0,4.0,78,0.00,,,0.00,WUHU216DAVISVP2,2013-04-12 05:35:00,
2013-04-12 00:40:00,39.2,32.6,29.76,West,275,1.0,3.0,77,0.00,,,0.00,WUHU216DAVISVP2,2013-04-12 05:40:00,
2013-04-12 00:45:00,39.1,32.5,29.76,WNW,296,2.0,3.0,77,0.00,,,0.00,WUHU216DAVISVP2,2013-04-12 05:45:00,
2013-04-12 00:50:00,39.0,32.8,29.76,West,273,0.0,3.0,78,0.00,,,0.00,WUHU216DAVISVP2,2013-04-12 05:50:00,
2013-04-12 00:55:00,38.7,32.8,29.77,SW,236,1.0,3.0,79,0.00,,,0.00,WUHU216DAVISVP2,2013-04-12 05:55:00,
2013-04-12 01:00:00,38.3,33.0,29.77,SW,236,0.0,2.0,81,0.00,,,0.00,WUHU216DAVISVP2,2013-04-12 06:00:00,
2013-04-12 01:05:00,37.9,33.2,29.77,WSW,254,1.0,1.0,83,0.00,,,0.00,WUHU216DAVISVP2,2013-04-12 06:05:00,
2013-04-12 01:10:00,37.6,33.2,29.77,WSW,257,0.0,1.0,84,0.00,,,0.00,WUHU216DAVISVP2,2013-04-12 06:10:00,
2013-04-12 01:15:00,37.4,33.3,29.76,WSW,257,0.0,1.0,85,0.00,,,0.00,WUHU216DAVISVP2,2013-04-12 06:15:00,
2013-04-12 01:20:00,37.3,33.5,29.76,WSW,257,0.0,1.0,86,0.00,,,0.00,WUHU216DAVISVP2,2013-04-12 06:20:00,
2013-04-12 01:25:00,37.1,33.0,29.76,WSW,257,0.0,0.0,85,0.00,,,0.00,WUHU216DAVISVP2,2013-04-12 06:25:00,
2013-04-12 01:30:00,37.1,33.3,29.76,WSW,257,1.0,1.0,86,0.00,,,0.00,WUHU216DAVISVP2,2013-04-12 06:30:00,
2013-04-12 01:35:00,37.1,33.3,29.76,WSW,257,0.0,1.0,86,0.00,,,0.00,WUHU216DAVISVP2,2013-04-12 06:35:00,
2013-04-12 01:40:00,37.1,33.0,29.76,WSW,257,0.0,0.0,85,0.00,,,0.00,WUHU216DAVISVP2,2013-04-12 06:40:00,
2013-04-12 01:45:00,37.0,33.2,29.76,WSW,257,0.0,1.0,86,0.00,,,0.00,WUHU216DAVISVP2,2013-04-12 06:45:00,
2013-04-12 01:50:00,36.9,33.1,29.76,WSW,257,0.0,1.0,86,0.00,,,0.00,WUHU216DAVISVP2,2013-04-12 06:50:00,
2013-04-12 01:55:00,36.9,32.8,29.77,SSW,212,0.0,1.0,85,0.00,,,0.00,WUHU216DAVISVP2,2013-04-12 06:55:00,
2013-04-12 02:00:00,37.1,32.7,29.76,SSW,202,2.0,2.0,84,0.00,,,0.00,WUHU216DAVISVP2,2013-04-12 07:00:00,
2013-04-12 02:05:00,37.2,32.8,29.76,SW,226,0.0,2.0,84,0.00,,,0.00,WUHU216DAVISVP2,2013-04-12 07:05:00,
2013-04-12 02:10:00,36.9,32.8,29.76,SW,226,0.0,1.0,85,0.00,,,0.00,WUHU216DAVISVP2,2013-04-12 07:10:00,
2013-04-12 02:15:00,36.7,32.6,29.76,SSW,207,1.0,2.0,85,0.00,,,0.00,WUHU216DAVISVP2,2013-04-12 07:15:00,
2013-04-12 02:20:00,36.8,32.7,29.76,SW,214,0.0,2.0,85,0.00,,,0.00,WUHU216DAVISVP2,2013-04-12 07:20:00,
2013-04-12 02:25:00,36.7,32.6,29.76,SW,223,0.0,2.0,85,0.00,,,0.00,WUHU216DAVISVP2,2013-04-12 07:25:00,
2013-04-12 02:30:00,36.7,32.9,29.75,WSW,243,0.0,2.0,86,0.00,,,0.00,WUHU216DAVISVP2,2013-04-12 07:30:00,
2013-04-12 02:35:00,36.6,32.8,29.75,SW,231,0.0,2.0,86,0.00,,,0.00,WUHU216DAVISVP2,2013-04-12 07:35:00,
2013-04-12 02:40:00,36.5,32.7,29.75,SSW,209,0.0,2.0,86,0.00,,,0.00,WUHU216DAVISVP2,2013-04-12 07:40:00,
2013-04-12 02:45:00,36.6,32.8,29.75,WSW,245,2.0,2.0,86,0.00,,,0.00,WUHU216DAVISVP2,2013-04-12 07:45:00,
2013-04-12 02:50:00,36.7,32.9,29.75,SW,231,3.0,3.0,86,0.00,,,0.00,WUHU216DAVISVP2,2013-04-12 07:50:00,
2013-04-12 02:55:00,36.8,33.0,29.75,SW,228,1.0,3.0,86,0.00,,,0.00,WUHU216DAVISVP2,2013-04-12 07:55:00,
2013-04-12 03:00:00,36.8,32.7,29.75,SW,217,1.0,3.0,85,0.00,,,0.00,WUHU216DAVISVP2,2013-04-12 08:00:00,
2013-04-12 03:05:00,36.8,33.0,29.75,SW,222,1.0,2.0,86,0.00,,,0.00,WUHU216DAVISVP2,2013-04-12 08:05:00,
2013-04-12 03:10:00,36.7,32.9,29.75,SSW,203,2.0,2.0,86,0.00,,,0.00,WUHU216DAVISVP2,2013-04-12 08:10:00,
2013-04-12 03:16:00,36.8,33.0,29.75,SW,223,2.0,2.0,86,0.00,,,0.00,WUHU216DAVISVP2,2013-04-12 08:16:00,
2013-04-12 03:21:00,36.9,33.1,29.75,SSW,203,1.0,2.0,86,0.00,,,0.00,WUHU216DAVISVP2,2013-04-12 08:21:00,
2013-04-12 03:26:00,37.1,33.0,29.75,SW,233,0.0,2.0,85,0.00,,,0.00,WUHU216DAVISVP2,2013-04-12 08:26:00,
2013-04-12 03:31:00,37.2,33.4,29.75,SW,235,0.0,2.0,86,0.00,,,0.00,WUHU216DAVISVP2,2013-04-12 08:31:00,
2013-04-12 03:36:00,37.4,33.9,29.75,SW,230,2.0,3.0,87,0.00,,,0.00,WUHU216DAVISVP2,2013-04-12 08:36:00,
2013-04-12 03:40:00,37.5,34.0,29.75,SW,224,1.0,3.0,87,0.00,,,0.00,WUHU216DAVISVP2,2013-04-12 08:40:00,
2013-04-12 03:46:00,37.6,33.8,29.75,SW,231,0.0,3.0,86,0.00,,,0.00,WUHU216DAVISVP2,2013-04-12 08:46:00,
2013-04-12 03:50:00,37.5,33.7,29.75,WSW,237,1.0,2.0,86,0.00,,,0.00,WUHU216DAVISVP2,2013-04-12 08:50:00,
2013-04-12 03:56:00,37.4,33.3,29.76,WSW,242,3.0,4.0,85,0.00,,,0.00,WUHU216DAVISVP2,2013-04-12 08:56:00,
2013-04-12 04:00:00,37.3,33.5,29.76,SW,217,2.0,4.0,86,0.00,,,0.00,WUHU216DAVISVP2,2013-04-12 09:00:00,
2013-04-12 04:05:00,37.2,33.1,29.76,SW,219,3.0,5.0,85,0.00,,,0.00,WUHU216DAVISVP2,2013-04-12 09:05:00,
2013-04-12 04:11:00,37.3,33.2,29.76,WSW,242,2.0,5.0,85,0.00,,,0.00,WUHU216DAVISVP2,2013-04-12 09:11:00,
2013-04-12 04:16:00,37.5,33.4,29.76,SSW,205,3.0,4.0,85,0.00,,,0.00,WUHU216DAVISVP2,2013-04-12 09:16:00,
2013-04-12 04:20:00,37.5,33.4,29.76,WSW,245,2.0,5.0,85,0.00,,,0.00,WUHU216DAVISVP2,2013-04-12 09:20:00,
2013-04-12 04:25:00,37.6,33.2,29.76,SW,234,2.0,5.0,84,0.00,,,0.00,WUHU216DAVISVP2,2013-04-12 09:25:00,
2013-04-12 04:30:00,37.6,33.2,29.77,SW,225,2.0,4.0,84,0.00,,,0.00,WUHU216DAVISVP2,2013-04-12 09:30:00,
2013-04-12 04:35:00,37.7,33.3,29.77,SSW,212,2.0,5.0,84,0.00,,,0.00,WUHU216DAVISVP2,2013-04-12 09:35:00,
2013-04-12 04:40:00,37.6,33.2,29.77,SW,221,2.0,5.0,84,0.00,,,0.00,WUHU216DAVISVP2,2013-04-12 09:40:00,
2013-04-12 04:45:00,37.5,33.4,29.77,SW,215,2.0,4.0,85,0.00,,,0.00,WUHU216DAVISVP2,2013-04-12 09:45:00,
2013-04-12 04:50:00,37.4,33.3,29.77,SSW,212,3.0,5.0,85,0.00,,,0.00,WUHU216DAVISVP2,2013-04-12 09:50:00,
2013-04-12 04:55:00,37.2,33.1,29.77,SSW,211,2.0,5.0,85,0.00,,,0.00,WUHU216DAVISVP2,2013-04-12 09:55:00,
2013-04-12 05:00:00,37.1,33.0,29.77,WSW,240,3.0,5.0,85,0.00,,,0.00,WUHU216DAVISVP2,2013-04-12 10:00:00,
2013-04-12 05:05:00,37.2,33.1,29.77,SW,216,2.0,5.0,85,0.00,,,0.00,WUHU216DAVISVP2,2013-04-12 10:05:00,
2013-04-12 05:10:00,37.5,33.1,29.77,WSW,250,5.0,7.0,84,0.00,,,0.00,WUHU216DAVISVP2,2013-04-12 10:10:00,
2013-04-12 05:15:00,37.7,33.3,29.78,SW,231,7.0,7.0,84,0.00,,,0.00,WUHU216DAVISVP2,2013-04-12 10:15:00,
2013-04-12 05:20:00,37.9,33.5,29.78,SW,231,4.0,7.0,84,0.00,,,0.00,WUHU216DAVISVP2,2013-04-12 10:20:00,
2013-04-12 05:25:00,37.9,33.5,29.78,SW,229,7.0,7.0,84,0.00,,,0.00,WUHU216DAVISVP2,2013-04-12 10:25:00,
2013-04-12 05:30:00,37.9,33.2,29.78,SW,226,5.0,7.0,83,0.00,,,0.00,WUHU216DAVISVP2,2013-04-12 10:30:00,
2013-04-12 05:35:00,37.9,33.2,29.78,SW,226,5.0,7.0,83,0.00,,,0.00,WUHU216DAVISVP2,2013-04-12 10:35:00,
2013-04-12 05:40:00,37.9,33.2,29.78,SSW,200,3.0,9.0,83,0.00,,,0.00,WUHU216DAVISVP2,2013-04-12 10:40:00,
2013-04-12 05:45:00,37.9,33.2,29.78,WSW,238,5.0,9.0,83,0.00,,,0.00,WUHU216DAVISVP2,2013-04-12 10:45:00,
2013-04-12 05:50:00,37.8,33.4,29.78,SW,219,4.0,8.0,84,0.00,,,0.00,WUHU216DAVISVP2,2013-04-12 10:50:00,
2013-04-12 05:55:00,37.7,33.3,29.78,SW,233,5.0,7.0,84,0.00,,,0.00,WUHU216DAVISVP2,2013-04-12 10:55:00,
2013-04-12 06:00:00,37.7,33.3,29.78,WSW,237,4.0,9.0,84,0.00,,,0.00,WUHU216DAVISVP2,2013-04-12 11:00:00,
2013-04-12 06:05:00,37.7,33.3,29.79,SSW,205,4.0,9.0,84,0.00,,,0.00,WUHU216DAVISVP2,2013-04-12 11:05:00,
2013-04-12 06:10:00,37.7,33.0,29.79,SW,228,6.0,9.0,83,0.00,,,0.00,WUHU216DAVISVP2,2013-04-12 11:10:00,
2013-04-12 06:15:00,37.8,33.1,29.79,WSW,239,5.0,8.0,83,0.00,,,0.00,WUHU216DAVISVP2,2013-04-12 11:15:00,
2013-04-12 06:20:00,37.8,33.1,29.79,SW,229,5.0,8.0,83,0.00,,,0.00,WUHU216DAVISVP2,2013-04-12 11:20:00,
2013-04-12 06:25:00,37.7,33.0,29.79,SW,236,4.0,8.0,83,0.00,,,0.00,WUHU216DAVISVP2,2013-04-12 11:25:00,
2013-04-12 06:30:00,37.9,32.9,29.80,SW,219,5.0,8.0,82,0.00,,,0.00,WUHU216DAVISVP2,2013-04-12 11:30:00,
2013-04-12 06:35:00,38.1,33.1,29.80,SW,224,6.0,8.0,82,0.00,,,0.00,WUHU216DAVISVP2,2013-04-12 11:35:00,
2013-04-12 06:40:00,38.3,33.3,29.80,WSW,253,5.0,8.0,82,0.00,,,0.00,WUHU216DAVISVP2,2013-04-12 11:40:00,
2013-04-12 06:45:00,38.5,33.2,29.80,SW,216,7.0,9.0,81,0.00,,,0.00,WUHU216DAVISVP2,2013-04-12 11:45:00,
2013-04-12 06:50:00,38.7,33.4,29.80,SW,226,6.0,10.0,81,0.00,,,0.00,WUHU216DAVISVP2,2013-04-12 11:50:00,
2013-04-12 06:55:00,38.9,33.3,29.81,WSW,251,7.0,12.0,80,0.00,,,0.00,WUHU216DAVISVP2,2013-04-12 11:55:00,
2013-04-12 07:00:00,39.1,33.8,29.81,WSW,252,6.0,12.0,81,0.00,,,0.00,WUHU216DAVISVP2,2013-04-12 12:00:00,
2013-04-12 07:05:00,39.2,33.6,29.81,SSW,213,4.0,12.0,80,0.00,,,0.00,WUHU216DAVISVP2,2013-04-12 12:05:00,
2013-04-12 07:10:00,39.4,33.5,29.81,SW,235,5.0,11.0,79,0.00,,,0.00,WUHU216DAVISVP2,2013-04-12 12:10:00,
2013-04-12 07:15:00,39.5,33.9,29.81,WSW,247,2.0,12.0,80,0.00,,,0.00,WUHU216DAVISVP2,2013-04-12 12:15:00,
2013-04-12 07:20:00,39.5,33.9,29.81,SW,234,4.0,12.0,80,0.00,,,0.00,WUHU216DAVISVP2,2013-04-12 12:20:00,
2013-04-12 07:25:00,39.6,33.6,29.82,SW,225,4.0,12.0,79,0.00,,,0.00,WUHU216DAVISVP2,2013-04-12 12:25:00,
2013-04-12 07:30:00,39.8,33.8,29.82,SSW,203,3.0,12.0,79,0.00,,,0.00,WUHU216DAVISVP2,2013-04-12 12:30:00,
2013-04-12 07:35:00,40.2,33.6,29.82,WSW,238,5.0,10.0,77,0.00,,,0.00,WUHU216DAVISVP2,2013-04-12 12:35:00,
2013-04-12 07:40:00,40.6,34.0,29.82,WSW,238,4.0,10.0,77,0.00,,,0.00,WUHU216DAVISVP2,2013-04-12 12:40:00,
2013-04-12 07:45:00,40.9,34.6,29.83,WSW,238,6.0,9.0,78,0.00,,,0.00,WUHU216DAVISVP2,2013-04-12 12:45:00,
2013-04-12 07:50:00,41.1,35.1,29.82,SW,226,6.0,9.0,79,0.00,,,0.00,WUHU216DAVISVP2,2013-04-12 12:50:00,
2013-04-12 07:56:00,41.0,34.1,29.82,SW,226,10.0,11.0,76,0.00,,,0.00,WUHU216DAVISVP2,2013-04-12 12:56:00,
2013-04-12 08:01:00,40.9,34.6,29.83,West,260,5.0,11.0,78,0.00,,,0.00,WUHU216DAVISVP2,2013-04-12 13:01:00,
2013-04-12 08:06:00,41.0,33.7,29.83,WSW,245,4.0,8.0,75,0.00,,,0.00,WUHU216DAVISVP2,2013-04-12 13:06:00,
2013-04-12 08:11:00,41.2,34.6,29.82,WSW,237,6.0,10.0,77,0.00,,,0.00,WUHU216DAVISVP2,2013-04-12 13:11:00,
2013-04-12 08:16:00,41.3,34.4,29.83,SW,214,5.0,10.0,76,0.00,,,0.00,WUHU216DAVISVP2,2013-04-12 13:16:00,
2013-04-12 08:21:00,41.5,33.9,29.83,WSW,245,4.0,12.0,74,0.00,,,0.00,WUHU216DAVISVP2,2013-04-12 13:21:00,
2013-04-12 08:26:00,41.9,33.9,29.83,WSW,255,6.0,12.0,73,0.00,,,0.00,WUHU216DAVISVP2,2013-04-12 13:26:00,
2013-04-12 08:31:00,42.0,34.0,29.83,WSW,247,6.0,11.0,73,0.00,,,0.00,WUHU216DAVISVP2,2013-04-12 13:31:00,
2013-04-12 08:36:00,42.4,33.7,29.83,WNW,291,7.0,14.0,71,0.00,,,0.00,WUHU216DAVISVP2,2013-04-12 13:36:00,
2013-04-12 08:41:00,42.6,32.5,29.83,WSW,249,10.0,14.0,67,0.00,,,0.00,WUHU216DAVISVP2,2013-04-12 13:41:00,
2013-04-12 08:46:00,42.6,32.9,29.83,WSW,243,5.0,13.0,68,0.00,,,0.00,WUHU216DAVISVP2,2013-04-12 13:46:00,
2013-04-12 08:51:00,42.9,32.4,29.83,WNW,285,6.0,13.0,66,0.00,,,0.00,WUHU216DAVISVP2,2013-04-12 13:51:00,
2013-04-12 08:56:00,43.1,32.2,29.83,West,272,10.0,15.0,65,0.00,,,0.00,WUHU216DAVISVP2,2013-04-12 13:56:00,
2013-04-12 09:01:00,43.5,34.8,29.83,WNW,283,12.0,15.0,71,0.00,,,0.00,WUHU216DAVISVP2,2013-04-12 14:01:00,
2013-04-12 09:06:00,43.5,32.6,29.83,West,267,7.0,12.0,65,0.00,,,0.00,WUHU216DAVISVP2,2013-04-12 14:06:00,
2013-04-12 09:11:00,43.6,33.5,29.83,West,266,9.0,14.0,67,0.00,,,0.00,WUHU216DAVISVP2,2013-04-12 14:11:00,
2013-04-12 09:16:00,43.7,32.3,29.83,SW,231,8.0,14.0,64,0.00,,,0.00,WUHU216DAVISVP2,2013-04-12 14:16:00,
2013-04-12 09:21:00,43.7,31.5,29.83,WNW,284,13.0,15.0,62,0.00,,,0.00,WUHU216DAVISVP2,2013-04-12 14:21:00,
2013-04-12 09:26:00,43.5,33.7,29.83,West,272,9.0,15.0,68,0.00,,,0.00,WUHU216DAVISVP2,2013-04-12 14:26:00,
2013-04-12 09:31:00,44.0,33.8,29.83,SW,219,8.0,14.0,67,0.00,,,0.00,WUHU216DAVISVP2,2013-04-12 14:31:00,
2013-04-12 09:37:00,44.3,33.7,29.83,West,271,6.0,15.0,66,0.00,,,0.00,WUHU216DAVISVP2,2013-04-12 14:37:00,
2013-04-12 09:42:00,43.9,32.6,29.84,SW,236,5.0,15.0,64,0.00,,,0.00,WUHU216DAVISVP2,2013-04-12 14:42:00,
2013-04-12 09:47:00,43.8,32.9,29.84,WNW,285,6.0,13.0,65,0.00,,,0.00,WUHU216DAVISVP2,2013-04-12 14:47:00,
2013-04-12 09:52:00,44.3,33.7,29.84,WNW,290,6.0,11.0,66,0.00,,,0.00,WUHU216DAVISVP2,2013-04-12 14:52:00,
2013-04-12 09:57:00,43.7,32.0,29.84,West,280,5.0,14.0,63,0.00,,,0.00,WUHU216DAVISVP2,2013-04-12 14:57:00,
2013-04-12 10:02:00,43.8,32.4,29.84,West,277,4.0,14.0,64,0.00,,,0.00,WUHU216DAVISVP2,2013-04-12 15:02:00,
2013-04-12 10:07:00,44.5,34.7,29.84,WSW,245,10.0,13.0,68,0.00,,,0.00,WUHU216DAVISVP2,2013-04-12 15:07:00,
2013-04-12 10:12:00,44.2,33.3,29.84,WNW,283,11.0,11.0,65,0.00,,,0.00,WUHU216DAVISVP2,2013-04-12 15:12:00,
2013-04-12 10:17:00,44.3,33.7,29.84,WSW,238,7.0,14.0,66,0.00,,,0.00,WUHU216DAVISVP2,2013-04-12 15:17:00,
2013-04-12 10:22:00,44.4,33.8,29.84,SW,217,4.0,14.0,66,0.00,,,0.00,WUHU216DAVISVP2,2013-04-12 15:22:00,
2013-04-12 10:27:00,44.6,32.5,29.84,WSW,255,8.0,13.0,62,0.00,,,0.00,WUHU216DAVISVP2,2013-04-12 15:27:00,
2013-04-12 10:32:00,45.6,33.4,29.85,West,265,10.0,16.0,62,0.00,,,0.00,WUHU216DAVISVP2,2013-04-12 15:32:00,
2013-04-12 10:37:00,45.4,32.0,29.85,WSW,257,12.0,16.0,59,0.00,,,0.00,WUHU216DAVISVP2,2013-04-12 15:37:00,
2013-04-12 10:42:00,45.7,33.0,29.85,WSW,245,9.0,16.0,61,0.00,,,0.00,WUHU216DAVISVP2,2013-04-12 15:42:00,
2013-04-12 10:47:00,45.5,32.5,29.85,West,280,5.0,17.0,60,0.00,,,0.00,WUHU216DAVISVP2,2013-04-12 15:47:00,
2013-04-12 10:52:00,45.8,34.4,29.86,WSW,247,12.0,17.0,64,0.00,,,0.00,WUHU216DAVISVP2,2013-04-12 15:52:00,
2013-04-12 10:57:00,45.9,32.4,29.86,West,262,7.0,14.0,59,0.00,,,0.00,WUHU216DAVISVP2,2013-04-12 15:57:00,
2013-04-12 11:02:00,46.0,32.5,29.86,West,279,9.0,17.0,59,0.00,,,0.00,WUHU216DAVISVP2,2013-04-12 16:02:00,
2013-04-12 11:07:00,46.3,33.7,29.86,WSW,248,5.0,17.0,61,0.00,,,0.00,WUHU216DAVISVP2,2013-04-12 16:07:00,
2013-04-12 11:12:00,46.1,31.8,29.86,WNW,283,8.0,16.0,57,0.00,,,0.00,WUHU216DAVISVP2,2013-04-12 16:12:00,
2013-04-12 11:17:00,46.4,35.0,29.87,WSW,250,5.0,16.0,64,0.00,,,0.00,WUHU216DAVISVP2,2013-04-12 16:17:00,
2013-04-12 11:22:00,47.0,32.5,29.87,WNW,288,8.0,18.0,57,0.00,,,0.00,WUHU216DAVISVP2,2013-04-12 16:22:00,
2013-04-12 11:27:00,46.9,34.6,29.87,WSW,240,6.0,18.0,62,0.00,,,0.00,WUHU216DAVISVP2,2013-04-12 16:27:00,
2013-04-12 11:32:00,47.4,34.7,29.87,West,276,12.0,17.0,61,0.00,,,0.00,WUHU216DAVISVP2,2013-04-12 16:32:00,
2013-04-12 11:37:00,47.3,32.0,29.87,West,280,9.0,17.0,55,0.00,,,0.00,WUHU216DAVISVP2,2013-04-12 16:37:00,
2013-04-12 11:42:00,46.8,33.7,29.87,SW,225,10.0,15.0,60,0.00,,,0.00,WUHU216DAVISVP2,2013-04-12 16:42:00,
2013-04-12 11:47:00,46.7,33.6,29.87,NW,306,14.0,15.0,60,0.00,,,0.00,WUHU216DAVISVP2,2013-04-12 16:47:00,
2013-04-12 11:52:00,47.4,35.1,29.87,West,277,7.0,15.0,62,0.00,,,0.00,WUHU216DAVISVP2,2013-04-12 16:52:00,
2013-04-12 11:57:00,47.2,32.3,29.87,West,259,12.0,13.0,56,0.00,,,0.00,WUHU216DAVISVP2,2013-04-12 16:57:00,
2013-04-12 12:02:00,46.8,33.3,29.87,WNW,283,12.0,15.0,59,0.00,,,0.00,WUHU216DAVISVP2,2013-04-12 17:02:00,
2013-04-12 12:07:00,47.2,33.6,29.87,West,266,8.0,15.0,59,0.00,,,0.00,WUHU216DAVISVP2,2013-04-12 17:07:00,
2013-04-12 12:12:00,47.7,32.8,29.88,WSW,252,12.0,18.0,56,0.00,,,0.00,WUHU216DAVISVP2,2013-04-12 17:12:00,
2013-04-12 12:17:00,47.7,33.3,29.88,WNW,287,9.0,19.0,57,0.00,,,0.00,WUHU216DAVISVP2,2013-04-12 17:17:00,
2013-04-12 12:22:00,48.2,34.2,29.88,SSW,193,7.0,19.0,58,0.00,,,0.00,WUHU216DAVISVP2,2013-04-12 17:22:00,
2013-04-12 12:27:00,48.0,34.0,29.88,WNW,299,6.0,17.0,58,0.00,,,0.00,WUHU216DAVISVP2,2013-04-12 17:27:00,
2013-04-12 12:32:00,47.6,32.3,29.88,WNW,290,7.0,17.0,55,0.00,,,0.00,WUHU216DAVISVP2,2013-04-12 17:32:00,
2013-04-12 12:38:00,47.6,31.8,29.88,West,268,7.0,17.0,54,0.00,,,0.00,WUHU216DAVISVP2,2013-04-12 17:38:00,
2013-04-12 12:43:00,47.3,34.2,29.88,WNW,303,7.0,17.0,60,0.00,,,0.00,WUHU216DAVISVP2,2013-04-12 17:43:00,
2013-04-12 12:48:00,47.8,34.6,29.88,West,270,10.0,17.0,60,0.00,,,0.00,WUHU216DAVISVP2,2013-04-12 17:48:00,
2013-04-12 12:53:00,47.5,32.1,29.88,WNW,282,11.0,19.0,55,0.00,,,0.00,WUHU216DAVISVP2,2013-04-12 17:53:00,
2013-04-12 12:58:00,47.6,32.7,29.88,West,276,7.0,19.0,56,0.00,,,0.00,WUHU216DAVISVP2,2013-04-12 17:58:00,
2013-04-12 13:04:00,47.4,33.4,29.88,West,277,12.0,17.0,58,0.00,,,0.00,WUHU216DAVISVP2,2013-04-12 18:04:00,
2013-04-12 13:09:00,48.2,34.6,29.88,WSW,240,12.0,17.0,59,0.00,,,0.00,WUHU216DAVISVP2,2013-04-12 18:09:00,
2013-04-12 13:14:00,48.3,33.8,29.88,WNW,297,6.0,15.0,57,0.00,,,0.00,WUHU216DAVISVP2,2013-04-12 18:14:00,
2013-04-12 13:20:00,48.2,33.7,29.89,West,261,9.0,15.0,57,0.00,,,0.00,WUHU216DAVISVP2,2013-04-12 18:20:00,
2013-04-12 13:25:00,48.2,34.2,29.89,NW,306,4.0,14.0,58,0.00,,,0.00,WUHU216DAVISVP2,2013-04-12 18:25:00,
2013-04-12 13:35:00,48.7,34.2,29.89,WNW,282,10.0,14.0,57,0.00,,,0.00,WUHU216DAVISVP2,2013-04-12 18:35:00,
2013-04-12 13:41:00,48.6,33.2,29.89,West,262,7.0,16.0,55,0.00,,,0.00,WUHU216DAVISVP2,2013-04-12 18:41:00,
2013-04-12 13:47:00,49.1,34.1,29.89,WNW,287,8.0,16.0,56,0.00,,,0.00,WUHU216DAVISVP2,2013-04-12 18:47:00,
2013-04-12 13:53:00,48.9,33.4,29.90,WSW,257,6.0,16.0,55,0.00,,,0.00,WUHU216DAVISVP2,2013-04-12 18:53:00,
2013-04-12 13:59:00,48.5,33.6,29.90,NW,318,3.0,11.0,56,0.00,,,0.00,WUHU216DAVISVP2,2013-04-12 18:59:00,
2013-04-12 14:05:00,48.8,33.8,29.90,WNW,285,10.0,12.0,56,0.00,,,0.00,WUHU216DAVISVP2,2013-04-12 19:05:00,
2013-04-12 14:11:00,49.0,34.0,29.90,West,276,3.0,12.0,56,0.00,,,0.00,WUHU216DAVISVP2,2013-04-12 19:11:00,
2013-04-12 14:26:00,49.6,34.6,29.91,NNW,331,8.0,12.0,56,0.00,,,0.00,WUHU216DAVISVP2,2013-04-12 19:26:00,
2013-04-12 14:31:00,50.1,33.2,29.91,NW,310,6.0,13.0,52,0.00,,,0.00,WUHU216DAVISVP2,2013-04-12 19:31:00,
2013-04-12 14:37:00,49.8,35.7,29.91,NW,326,5.0,15.0,58,0.00,,,0.00,WUHU216DAVISVP2,2013-04-12 19:37:00,
2013-04-12 14:42:00,49.6,34.1,29.91,NW,304,9.0,15.0,55,0.00,,,0.00,WUHU216DAVISVP2,2013-04-12 19:42:00,
2013-04-12 14:47:00,49.3,34.7,29.91,West,279,6.0,13.0,57,0.00,,,0.00,WUHU216DAVISVP2,2013-04-12 19:47:00,
2013-04-12 14:52:00,50.0,35.0,29.91,NW,313,7.0,13.0,56,0.00,,,0.00,WUHU216DAVISVP2,2013-04-12 19:52:00,
2013-04-12 14:57:00,50.5,36.3,29.91,West,260,8.0,16.0,58,0.00,,,0.00,WUHU216DAVISVP2,2013-04-12 19:57:00,
2013-04-12 15:02:00,50.8,35.7,29.91,NW,304,9.0,16.0,56,0.00,,,0.00,WUHU216DAVISVP2,2013-04-12 20:02:00,
2013-04-12 15:07:00,50.7,35.2,29.91,NW,307,5.0,12.0,55,0.00,,,0.00,WUHU216DAVISVP2,2013-04-12 20:07:00,
2013-04-12 15:12:00,51.2,35.2,29.91,West,267,9.0,11.0,54,0.00,,,0.00,WUHU216DAVISVP2,2013-04-12 20:12:00,
2013-04-12 15:17:00,50.4,32.9,29.92,West,278,3.0,21.0,51,0.00,,,0.00,WUHU216DAVISVP2,2013-04-12 20:17:00,
2013-04-12 15:22:00,49.4,33.5,29.92,WNW,288,7.0,21.0,54,0.00,,,0.00,WUHU216DAVISVP2,2013-04-12 20:22:00,
2013-04-12 15:27:00,49.7,34.7,29.92,WNW,297,6.0,15.0,56,0.00,,,0.00,WUHU216DAVISVP2,2013-04-12 20:27:00,
2013-04-12 15:32:00,49.6,34.1,29.92,WNW,295,5.0,17.0,55,0.00,,,0.00,WUHU216DAVISVP2,2013-04-12 20:32:00,
2013-04-12 15:37:00,49.8,33.4,29.91,NNW,333,6.0,17.0,53,0.00,,,0.00,WUHU216DAVISVP2,2013-04-12 20:37:00,
2013-04-12 15:42:00,51.2,36.6,29.92,West,276,8.0,14.0,57,0.00,,,0.00,WUHU216DAVISVP2,2013-04-12 20:42:00,
2013-04-12 15:47:00,50.2,34.7,29.92,WNW,300,7.0,16.0,55,0.00,,,0.00,WUHU216DAVISVP2,2013-04-12 20:47:00,
2013-04-12 15:52:00,50.5,37.2,29.92,West,267,5.0,16.0,60,0.00,,,0.00,WUHU216DAVISVP2,2013-04-12 20:52:00,
2013-04-12 15:57:00,50.7,33.7,29.92,West,276,10.0,14.0,52,0.00,,,0.00,WUHU216DAVISVP2,2013-04-12 20:57:00,
2013-04-12 16:02:00,49.9,36.2,29.92,WNW,290,8.0,14.0,59,0.00,,,0.00,WUHU216DAVISVP2,2013-04-12 21:02:00,
2013-04-12 16:07:00,49.1,34.6,29.92,West,271,12.0,16.0,57,0.00,,,0.00,WUHU216DAVISVP2,2013-04-12 21:07:00,
2013-04-12 16:12:00,49.5,35.3,29.92,WNW,283,5.0,16.0,58,0.00,,,0.00,WUHU216DAVISVP2,2013-04-12 21:12:00,
2013-04-12 16:17:00,49.9,35.3,29.93,WNW,297,6.0,15.0,57,0.00,,,0.00,WUHU216DAVISVP2,2013-04-12 21:17:00,
2013-04-12 16:22:00,49.9,35.3,29.92,NW,309,11.0,15.0,57,0.00,,,0.00,WUHU216DAVISVP2,2013-04-12 21:22:00,
2013-04-12 16:27:00,49.6,35.1,29.92,NNW,335,7.0,16.0,57,0.00,,,0.00,WUHU216DAVISVP2,2013-04-12 21:27:00,
2013-04-12 16:32:00,49.7,35.1,29.93,West,276,5.0,16.0,57,0.00,,,0.00,WUHU216DAVISVP2,2013-04-12 21:32:00,
2013-04-12 16:37:00,50.2,34.2,29.93,WNW,283,9.0,14.0,54,0.00,,,0.00,WUHU216DAVISVP2,2013-04-12 21:37:00,
2013-04-12 16:42:00,50.1,34.1,29.93,NNW,328,12.0,12.0,54,0.00,,,0.00,WUHU216DAVISVP2,2013-04-12 21:42:00,
2013-04-12 16:47:00,49.9,35.3,29.93,NW,313,5.0,14.0,57,0.00,,,0.00,WUHU216DAVISVP2,2013-04-12 21:47:00,
2013-04-12 16:52:00,49.9,34.9,29.93,WNW,296,8.0,14.0,56,0.00,,,0.00,WUHU216DAVISVP2,2013-04-12 21:52:00,
2013-04-12 16:57:00,49.4,33.5,29.93,NNW,333,12.0,12.0,54,0.00,,,0.00,WUHU216DAVISVP2,2013-04-12 21:57:00,
2013-04-12 17:02:00,49.2,34.7,29.93,WNW,300,5.0,16.0,57,0.00,,,0.00,WUHU216DAVISVP2,2013-04-12 22:02:00,
2013-04-12 17:07:00,49.1,35.0,29.93,NNW,328,6.0,14.0,58,0.00,,,0.00,WUHU216DAVISVP2,2013-04-12 22:07:00,
2013-04-12 17:12:00,49.2,35.5,29.94,WNW,293,6.0,14.0,59,0.00,,,0.00,WUHU216DAVISVP2,2013-04-12 22:12:00,
2013-04-12 17:18:00,49.5,34.9,29.94,WNW,296,6.0,13.0,57,0.00,,,0.00,WUHU216DAVISVP2,2013-04-12 22:18:00,
2013-04-12 17:23:00,49.0,33.5,29.94,NW,319,10.0,18.0,55,0.00,,,0.00,WUHU216DAVISVP2,2013-04-12 22:23:00,
2013-04-12 17:28:00,48.9,35.6,29.94,WNW,300,2.0,18.0,60,0.00,,,0.00,WUHU216DAVISVP2,2013-04-12 22:28:00,
2013-04-12 17:33:00,48.7,34.6,29.94,NW,314,5.0,15.0,58,0.00,,,0.00,WUHU216DAVISVP2,2013-04-12 22:33:00,
2013-04-12 17:38:00,48.3,34.3,29.95,NW,323,10.0,18.0,58,0.00,,,0.00,WUHU216DAVISVP2,2013-04-12 22:38:00,
2013-04-12 17:42:00,48.2,35.9,29.95,NNW,340,8.0,18.0,62,0.00,,,0.00,WUHU216DAVISVP2,2013-04-12 22:42:00,
2013-04-12 17:48:00,48.0,34.4,29.95,WNW,300,7.0,15.0,59,0.00,,,0.00,WUHU216DAVISVP2,2013-04-12 22:48:00,
2013-04-12 17:52:00,47.9,35.2,29.95,WNW,298,9.0,18.0,61,0.00,,,0.00,WUHU216DAVISVP2,2013-04-12 22:52:00,
2013-04-12 17:57:00,47.6,34.5,29.95,NW,304,4.0,18.0,60,0.00,,,0.00,WUHU216DAVISVP2,2013-04-12 22:57:00,
2013-04-12 18:02:00,47.4,33.9,29.95,NW,320,9.0,17.0,59,0.00,,,0.00,WUHU216DAVISVP2,2013-04-12 23:02:00,
2013-04-12 18:07:00,47.3,33.8,29.95,NW,319,9.0,17.0,59,0.00,,,0.00,WUHU216DAVISVP2,2013-04-12 23:07:00,
2013-04-12 18:12:00,47.0,33.5,29.96,NW,306,6.0,17.0,59,0.00,,,0.00,WUHU216DAVISVP2,2013-04-12 23:12:00,
2013-04-12 18:17:00,46.9,33.4,29.96,NW,323,16.0,17.0,59,0.00,,,0.00,WUHU216DAVISVP2,2013-04-12 23:17:00,
2013-04-12 18:22:00,46.7,33.2,29.96,NW,321,11.0,16.0,59,0.00,,,0.00,WUHU216DAVISVP2,2013-04-12 23:22:00,
2013-04-12 18:27:00,46.6,33.4,29.96,NW,323,18.0,18.0,60,0.00,,,0.00,WUHU216DAVISVP2,2013-04-12 23:27:00,
2013-04-12 18:32:00,46.5,33.4,29.96,NNW,335,5.0,18.0,60,0.00,,,0.00,WUHU216DAVISVP2,2013-04-12 23:32:00,
2013-04-12 18:37:00,46.4,33.8,29.96,NW,319,8.0,15.0,61,0.00,,,0.00,WUHU216DAVISVP2,2013-04-12 23:37:00,
2013-04-12 18:42:00,46.1,33.1,29.96,NW,322,15.0,17.0,60,0.00,,,0.00,WUHU216DAVISVP2,2013-04-12 23:42:00,
2013-04-12 18:47:00,45.8,32.8,29.96,NW,326,11.0,17.0,60,0.00,,,0.00,WUHU216DAVISVP2,2013-04-12 23:47:00,
2013-04-12 18:52:00,45.5,32.0,29.97,WNW,298,10.0,16.0,59,0.00,,,0.00,WUHU216DAVISVP2,2013-04-12 23:52:00,
2013-04-12 18:57:00,45.2,32.6,29.97,NW,311,5.0,15.0,61,0.00,,,0.00,WUHU216DAVISVP2,2013-04-12 23:57:00,
2013-04-12 19:02:00,45.0,32.8,29.97,NW,326,14.0,14.0,62,0.00,,,0.00,WUHU216DAVISVP2,2013-04-13 00:02:00,
2013-04-12 19:07:00,44.8,32.7,29.97,NNW,338,4.0,15.0,62,0.00,,,0.00,WUHU216DAVISVP2,2013-04-13 00:07:00,
2013-04-12 19:12:00,44.7,33.0,29.97,NW,314,5.0,15.0,63,0.00,,,0.00,WUHU216DAVISVP2,2013-04-13 00:12:00,
2013-04-12 19:17:00,44.4,33.1,29.97,NW,326,7.0,12.0,64,0.00,,,0.00,WUHU216DAVISVP2,2013-04-13 00:17:00,
2013-04-12 19:22:00,44.2,32.9,29.98,NNW,338,4.0,9.0,64,0.00,,,0.00,WUHU216DAVISVP2,2013-04-13 00:22:00,
2013-04-12 19:27:00,44.0,33.5,29.98,NNW,335,7.0,11.0,66,0.00,,,0.00,WUHU216DAVISVP2,2013-04-13 00:27:00,
2013-04-12 19:32:00,43.8,32.9,29.98,NW,324,4.0,11.0,65,0.00,,,0.00,WUHU216DAVISVP2,2013-04-13 00:32:00,
2013-04-12 19:37:00,43.6,33.5,29.98,NNW,347,3.0,8.0,67,0.00,,,0.00,WUHU216DAVISVP2,2013-04-13 00:37:00,
2013-04-12 19:42:00,43.5,32.5,29.98,NNW,330,7.0,11.0,65,0.00,,,0.00,WUHU216DAVISVP2,2013-04-13 00:42:00,
2013-04-12 19:47:00,43.3,33.1,29.98,NNW,340,4.0,11.0,67,0.00,,,0.00,WUHU216DAVISVP2,2013-04-13 00:47:00,
2013-04-12 19:52:00,43.2,32.6,29.98,NNW,327,3.0,9.0,66,0.00,,,0.00,WUHU216DAVISVP2,2013-04-13 00:52:00,
2013-04-12 19:57:00,43.0,33.2,29.99,North,4,7.0,9.0,68,0.00,,,0.00,WUHU216DAVISVP2,2013-04-13 00:57:00,
2013-04-12 20:02:00,42.9,33.2,29.99,NNW,338,4.0,8.0,68,0.00,,,0.00,WUHU216DAVISVP2,2013-04-13 01:02:00,
2013-04-12 20:07:00,42.7,33.3,29.99,NW,310,4.0,8.0,69,0.00,,,0.00,WUHU216DAVISVP2,2013-04-13 01:07:00,
2013-04-12 20:12:00,42.5,33.5,29.99,NW,320,3.0,7.0,70,0.00,,,0.00,WUHU216DAVISVP2,2013-04-13 01:12:00,
2013-04-12 20:17:00,42.3,33.3,30.00,NNW,335,3.0,5.0,70,0.00,,,0.00,WUHU216DAVISVP2,2013-04-13 01:17:00,
2013-04-12 20:23:00,42.2,33.5,30.00,NW,310,1.0,5.0,71,0.00,,,0.00,WUHU216DAVISVP2,2013-04-13 01:23:00,
2013-04-12 20:28:00,41.9,33.3,30.00,WNW,302,0.0,4.0,71,0.00,,,0.00,WUHU216DAVISVP2,2013-04-13 01:28:00,
2013-04-12 20:33:00,41.6,33.9,30.00,West,281,0.0,1.0,74,0.00,,,0.00,WUHU216DAVISVP2,2013-04-13 01:33:00,
2013-04-12 20:38:00,41.3,33.3,30.00,West,281,0.0,1.0,73,0.00,,,0.00,WUHU216DAVISVP2,2013-04-13 01:38:00,
2013-04-12 20:43:00,41.1,33.4,30.00,NNW,330,1.0,1.0,74,0.00,,,0.00,WUHU216DAVISVP2,2013-04-13 01:43:00,
2013-04-12 20:48:00,40.8,33.2,30.00,NNW,342,2.0,2.0,74,0.00,,,0.00,WUHU216DAVISVP2,2013-04-13 01:48:00,
2013-04-12 20:53:00,40.8,33.2,30.00,NW,319,1.0,3.0,74,0.00,,,0.00,WUHU216DAVISVP2,2013-04-13 01:53:00,
2013-04-12 20:58:00,40.8,33.2,30.01,NW,321,1.0,3.0,74,0.00,,,0.00,WUHU216DAVISVP2,2013-04-13 01:58:00,
2013-04-12 21:03:00,40.8,33.2,30.01,NW,305,1.0,3.0,74,0.00,,,0.00,WUHU216DAVISVP2,2013-04-13 02:03:00,
2013-04-12 21:08:00,40.7,33.1,30.01,NW,321,1.0,3.0,74,0.00,,,0.00,WUHU216DAVISVP2,2013-04-13 02:08:00,
2013-04-12 21:13:00,40.7,33.4,30.01,NW,324,1.0,2.0,75,0.00,,,0.00,WUHU216DAVISVP2,2013-04-13 02:13:00,
2013-04-12 21:18:00,40.6,33.4,30.01,WNW,296,0.0,2.0,75,0.00,,,0.00,WUHU216DAVISVP2,2013-04-13 02:18:00,
2013-04-12 21:23:00,40.5,33.2,30.02,NW,315,0.0,2.0,75,0.00,,,0.00,WUHU216DAVISVP2,2013-04-13 02:23:00,
2013-04-12 21:28:00,40.3,33.3,30.02,NW,307,0.0,1.0,76,0.00,,,0.00,WUHU216DAVISVP2,2013-04-13 02:28:00,
2013-04-12 21:33:00,40.0,33.1,30.02,NW,307,0.0,1.0,76,0.00,,,0.00,WUHU216DAVISVP2,2013-04-13 02:33:00,
2013-04-12 21:38:00,39.9,33.0,30.02,NW,322,1.0,2.0,76,0.00,,,0.00,WUHU216DAVISVP2,2013-04-13 02:38:00,
2013-04-12 21:43:00,40.2,33.0,30.02,NW,318,2.0,3.0,75,0.00,,,0.00,WUHU216DAVISVP2,2013-04-13 02:43:00,
2013-04-12 21:48:00,40.2,33.3,30.02,NW,319,2.0,3.0,76,0.00,,,0.00,WUHU216DAVISVP2,2013-04-13 02:48:00,
2013-04-12 21:53:00,40.3,33.1,30.03,WNW,302,1.0,4.0,75,0.00,,,0.00,WUHU216DAVISVP2,2013-04-13 02:53:00,
2013-04-12 21:58:00,40.5,33.3,30.03,NNW,328,3.0,4.0,75,0.00,,,0.00,WUHU216DAVISVP2,2013-04-13 02:58:00,
2013-04-12 22:03:00,40.6,33.4,30.02,NW,317,2.0,4.0,75,0.00,,,0.00,WUHU216DAVISVP2,2013-04-13 03:03:00,
2013-04-12 22:08:00,40.7,33.1,30.03,NW,304,0.0,4.0,74,0.00,,,0.00,WUHU216DAVISVP2,2013-04-13 03:08:00,
2013-04-12 22:13:00,40.7,33.1,30.03,WNW,287,1.0,4.0,74,0.00,,,0.00,WUHU216DAVISVP2,2013-04-13 03:13:00,
2013-04-12 22:18:00,40.6,33.0,30.03,West,280,3.0,5.0,74,0.00,,,0.00,WUHU216DAVISVP2,2013-04-13 03:18:00,
2013-04-12 22:23:00,41.2,33.3,30.03,NW,318,5.0,8.0,73,0.00,,,0.00,WUHU216DAVISVP2,2013-04-13 03:23:00,
2013-04-12 22:28:00,41.9,33.6,30.03,NNW,336,4.0,8.0,72,0.00,,,0.00,WUHU216DAVISVP2,2013-04-13 03:28:00,
2013-04-12 22:33:00,42.2,33.5,30.03,NW,322,1.0,6.0,71,0.00,,,0.00,WUHU216DAVISVP2,2013-04-13 03:33:00,
2013-04-12 22:38:00,42.1,34.1,30.03,WNW,297,3.0,5.0,73,0.00,,,0.00,WUHU216DAVISVP2,2013-04-13 03:38:00,
2013-04-12 22:43:00,42.1,34.5,30.03,NNW,328,2.0,5.0,74,0.00,,,0.00,WUHU216DAVISVP2,2013-04-13 03:43:00,
2013-04-12 22:48:00,42.1,34.5,30.03,WNW,284,2.0,4.0,74,0.00,,,0.00,WUHU216DAVISVP2,2013-04-13 03:48:00,
2013-04-12 22:53:00,42.0,34.4,30.03,WNW,294,2.0,4.0,74,0.00,,,0.00,WUHU216DAVISVP2,2013-04-13 03:53:00,
2013-04-12 22:58:00,41.9,34.3,30.03,West,269,2.0,4.0,74,0.00,,,0.00,WUHU216DAVISVP2,2013-04-13 03:58:00,
2013-04-12 23:00:00,41.9,34.3,30.03,West,275,1.0,4.0,74,0.00,,,0.00,WUHU216DAVISVP2,2013-04-13 04:00:00,
2013-04-12 23:05:00,41.9,34.3,30.03,West,278,2.0,4.0,74,0.00,,,0.00,WUHU216DAVISVP2,2013-04-13 04:05:00,
2013-04-12 23:10:00,41.9,34.3,30.03,WNW,283,2.0,4.0,74,0.00,,,0.00,WUHU216DAVISVP2,2013-04-13 04:10:00,
2013-04-12 23:15:00,41.8,34.8,30.04,West,261,0.0,4.0,76,0.00,,,0.00,WUHU216DAVISVP2,2013-04-13 04:15:00,
2013-04-12 23:20:00,41.5,34.9,30.04,West,275,0.0,2.0,77,0.00,,,0.00,WUHU216DAVISVP2,2013-04-13 04:20:00,
2013-04-12 23:25:00,41.4,35.4,30.04,WSW,255,0.0,2.0,79,0.00,,,0.00,WUHU216DAVISVP2,2013-04-13 04:25:00,
2013-04-12 23:30:00,41.3,35.3,30.04,SW,232,2.0,2.0,79,0.00,,,0.00,WUHU216DAVISVP2,2013-04-13 04:30:00,
2013-04-12 23:35:00,41.2,35.2,30.04,WSW,240,1.0,3.0,79,0.00,,,0.00,WUHU216DAVISVP2,2013-04-13 04:35:00,
2013-04-12 23:40:00,41.2,35.5,30.05,West,277,1.0,3.0,80,0.00,,,0.00,WUHU216DAVISVP2,2013-04-13 04:40:00,
2013-04-12 23:45:00,41.3,35.3,30.05,WSW,241,2.0,2.0,79,0.00,,,0.00,WUHU216DAVISVP2,2013-04-13 04:45:00,
2013-04-12 23:50:00,41.5,35.2,30.05,SW,233,0.0,2.0,78,0.00,,,0.00,WUHU216DAVISVP2,2013-04-13 04:50:00,
2013-04-12 23:55:00,41.2,35.2,30.05,WSW,251,1.0,2.0,79,0.00,,,0.00,WUHU216DAVISVP2,2013-04-13 04:55:00,